Year,Month,Day,Hour,Minute,Value (Times are PST for temperature in C)
2018,09,29,00,00,12.40
2018,09,29,00,01,12.40
2018,09,29,00,02,12.40
2018,09,29,00,03,12.30
2018,09,29,00,04,12.30
2018,09,29,00,05,12.30
2018,09,29,00,06,12.20
2018,09,29,00,07,12.20
2018,09,29,00,08,12.20
2018,09,29,00,09,12.10
2018,09,29,00,10,12.10
2018,09,29,00,11,12.10
2018,09,29,00,12,12.10
2018,09,29,00,13,12.00
2018,09,29,00,14,12.00
2018,09,29,00,15,12.00
2018,09,29,00,16,11.90
2018,09,29,00,17,11.90
2018,09,29,00,18,11.90
2018,09,29,00,19,11.90
2018,09,29,00,20,11.90
2018,09,29,00,21,11.80
2018,09,29,00,22,11.80
2018,09,29,00,23,11.80
2018,09,29,00,24,11.80
2018,09,29,00,25,11.80
2018,09,29,00,26,11.70
2018,09,29,00,27,11.70
2018,09,29,00,28,11.70
2018,09,29,00,29,11.70
2018,09,29,00,30,11.70
2018,09,29,00,31,11.60
2018,09,29,00,32,11.60
2018,09,29,00,33,11.60
2018,09,29,00,34,11.60
2018,09,29,00,35,11.60
2018,09,29,00,36,11.60
2018,09,29,00,37,11.50
2018,09,29,00,38,11.50
2018,09,29,00,39,11.50
2018,09,29,00,40,11.50
2018,09,29,00,41,11.40
2018,09,29,00,42,11.40
2018,09,29,00,43,11.40
2018,09,29,00,44,11.40
2018,09,29,00,45,11.40
2018,09,29,00,46,11.40
2018,09,29,00,47,11.40
2018,09,29,00,48,11.30
2018,09,29,00,49,11.30
2018,09,29,00,50,11.30
2018,09,29,00,51,11.30
2018,09,29,00,52,11.30
2018,09,29,00,53,11.30
2018,09,29,00,54,11.30
2018,09,29,00,55,11.30
2018,09,29,00,56,11.30
2018,09,29,00,57,11.30
2018,09,29,00,58,11.30
2018,09,29,00,59,11.30
2018,09,29,01,00,11.30
2018,09,29,01,01,11.30
2018,09,29,01,02,11.40
2018,09,29,01,03,11.40
2018,09,29,01,04,11.40
2018,09,29,01,05,11.50
2018,09,29,01,06,11.50
2018,09,29,01,07,11.50
2018,09,29,01,08,11.60
2018,09,29,01,09,11.60
2018,09,29,01,10,11.60
2018,09,29,01,11,11.70
2018,09,29,01,12,11.70
2018,09,29,01,13,11.70
2018,09,29,01,14,11.80
2018,09,29,01,15,11.80
2018,09,29,01,16,11.80
2018,09,29,01,17,11.80
2018,09,29,01,18,11.90
2018,09,29,01,19,11.90
2018,09,29,01,20,11.90
2018,09,29,01,21,11.90
2018,09,29,01,22,11.90
2018,09,29,01,23,11.90
2018,09,29,01,24,11.90
2018,09,29,01,25,11.90
2018,09,29,01,26,11.90
2018,09,29,01,27,11.80
2018,09,29,01,28,11.80
2018,09,29,01,29,11.80
2018,09,29,01,30,11.80
2018,09,29,01,31,11.80
2018,09,29,01,32,11.80
2018,09,29,01,33,11.80
2018,09,29,01,34,11.80
2018,09,29,01,35,11.80
2018,09,29,01,36,11.70
2018,09,29,01,37,11.70
2018,09,29,01,38,11.70
2018,09,29,01,39,11.70
2018,09,29,01,40,11.70
2018,09,29,01,41,11.70
2018,09,29,01,42,11.70
2018,09,29,01,43,11.70
2018,09,29,01,44,11.80
2018,09,29,01,45,11.80
2018,09,29,01,46,11.80
2018,09,29,01,47,11.80
2018,09,29,01,48,11.80
2018,09,29,01,49,11.80
2018,09,29,01,50,11.80
2018,09,29,01,51,11.80
2018,09,29,01,52,11.80
2018,09,29,01,53,11.70
2018,09,29,01,54,11.70
2018,09,29,01,55,11.70
2018,09,29,01,56,11.70
2018,09,29,01,57,11.70
2018,09,29,01,58,11.70
2018,09,29,01,59,11.70
2018,09,29,02,00,11.60
2018,09,29,02,01,11.60
2018,09,29,02,02,11.60
2018,09,29,02,03,11.60
2018,09,29,02,04,11.60
2018,09,29,02,05,11.60
2018,09,29,02,06,11.60
2018,09,29,02,07,11.50
2018,09,29,02,08,11.50
2018,09,29,02,09,11.50
2018,09,29,02,10,11.40
2018,09,29,02,11,11.40
2018,09,29,02,12,11.40
2018,09,29,02,13,11.40
2018,09,29,02,14,11.40
2018,09,29,02,15,11.50
2018,09,29,02,16,11.50
2018,09,29,02,17,11.50
2018,09,29,02,18,11.50
2018,09,29,02,19,11.50
2018,09,29,02,20,11.50
2018,09,29,02,21,11.50
2018,09,29,02,22,11.50
2018,09,29,02,23,11.50
2018,09,29,02,24,11.50
2018,09,29,02,25,11.50
2018,09,29,02,26,11.60
2018,09,29,02,27,11.60
2018,09,29,02,28,11.60
2018,09,29,02,29,11.70
2018,09,29,02,30,11.70
2018,09,29,02,31,11.80
2018,09,29,02,32,11.80
2018,09,29,02,33,11.80
2018,09,29,02,34,11.80
2018,09,29,02,35,11.80
2018,09,29,02,36,11.80
2018,09,29,02,37,11.80
2018,09,29,02,38,11.80
2018,09,29,02,39,11.80
2018,09,29,02,40,11.70
2018,09,29,02,41,11.70
2018,09,29,02,42,11.70
2018,09,29,02,43,11.70
2018,09,29,02,44,11.70
2018,09,29,02,45,11.60
2018,09,29,02,46,11.60
2018,09,29,02,47,11.60
2018,09,29,02,48,11.60
2018,09,29,02,49,11.60
2018,09,29,02,50,11.60
2018,09,29,02,51,11.60
2018,09,29,02,52,11.70
2018,09,29,02,53,11.70
2018,09,29,02,54,11.70
2018,09,29,02,55,11.70
2018,09,29,02,56,11.70
2018,09,29,02,57,11.70
2018,09,29,02,58,11.80
2018,09,29,02,59,11.80
2018,09,29,03,00,11.80
2018,09,29,03,01,11.80
2018,09,29,03,02,11.90
2018,09,29,03,03,12.00
2018,09,29,03,04,12.00
2018,09,29,03,05,12.10
2018,09,29,03,06,12.10
2018,09,29,03,07,12.20
2018,09,29,03,08,12.20
2018,09,29,03,09,12.30
2018,09,29,03,10,12.30
2018,09,29,03,11,12.30
2018,09,29,03,12,12.40
2018,09,29,03,13,12.40
2018,09,29,03,14,12.40
2018,09,29,03,15,12.40
2018,09,29,03,16,12.40
2018,09,29,03,17,12.50
2018,09,29,03,18,12.50
2018,09,29,03,19,12.50
2018,09,29,03,20,12.50
2018,09,29,03,21,12.50
2018,09,29,03,22,12.50
2018,09,29,03,23,12.60
2018,09,29,03,24,12.60
2018,09,29,03,25,12.60
2018,09,29,03,26,12.60
2018,09,29,03,27,12.60
2018,09,29,03,28,12.70
2018,09,29,03,29,12.70
2018,09,29,03,30,12.80
2018,09,29,03,31,12.80
2018,09,29,03,32,12.80
2018,09,29,03,33,12.80
2018,09,29,03,34,12.80
2018,09,29,03,35,12.90
2018,09,29,03,36,12.90
2018,09,29,03,37,13.00
2018,09,29,03,38,13.00
2018,09,29,03,39,13.00
2018,09,29,03,40,13.10
2018,09,29,03,41,13.10
2018,09,29,03,42,13.10
2018,09,29,03,43,13.10
2018,09,29,03,44,13.10
2018,09,29,03,45,13.10
2018,09,29,03,46,13.10
2018,09,29,03,47,13.10
2018,09,29,03,48,13.10
2018,09,29,03,49,13.20
2018,09,29,03,50,13.20
2018,09,29,03,51,13.30
2018,09,29,03,52,13.30
2018,09,29,03,53,13.30
2018,09,29,03,54,13.40
2018,09,29,03,55,13.40
2018,09,29,03,56,13.40
2018,09,29,03,57,13.40
2018,09,29,03,58,13.40
2018,09,29,03,59,13.40
2018,09,29,04,00,13.40
2018,09,29,04,01,13.40
2018,09,29,04,02,13.40
2018,09,29,04,03,13.50
2018,09,29,04,04,13.50
2018,09,29,04,05,13.60
2018,09,29,04,06,13.60
2018,09,29,04,07,13.70
2018,09,29,04,08,13.70
2018,09,29,04,09,13.70
2018,09,29,04,10,13.70
2018,09,29,04,11,13.70
2018,09,29,04,12,13.80
2018,09,29,04,13,13.80
2018,09,29,04,14,13.90
2018,09,29,04,15,13.90
2018,09,29,04,16,13.90
2018,09,29,04,17,13.90
2018,09,29,04,18,14.00
2018,09,29,04,19,14.00
2018,09,29,04,20,14.00
2018,09,29,04,21,14.00
2018,09,29,04,22,14.00
2018,09,29,04,23,14.00
2018,09,29,04,24,14.00
2018,09,29,04,25,14.00
2018,09,29,04,26,13.90
2018,09,29,04,27,13.90
2018,09,29,04,28,13.90
2018,09,29,04,29,13.80
2018,09,29,04,30,13.80
2018,09,29,04,31,13.80
2018,09,29,04,32,13.80
2018,09,29,04,33,13.80
2018,09,29,04,34,13.80
2018,09,29,04,35,13.90
2018,09,29,04,36,13.90
2018,09,29,04,37,13.90
2018,09,29,04,38,14.00
2018,09,29,04,39,14.00
2018,09,29,04,40,14.00
2018,09,29,04,41,14.00
2018,09,29,04,42,14.00
2018,09,29,04,43,14.00
2018,09,29,04,44,14.00
2018,09,29,04,45,14.00
2018,09,29,04,46,13.90
2018,09,29,04,47,13.90
2018,09,29,04,48,13.90
2018,09,29,04,49,13.90
2018,09,29,04,50,13.80
2018,09,29,04,51,13.80
2018,09,29,04,52,13.80
2018,09,29,04,53,13.80
2018,09,29,04,54,13.80
2018,09,29,04,55,13.80
2018,09,29,04,56,13.80
2018,09,29,04,57,13.80
2018,09,29,04,58,13.80
2018,09,29,04,59,13.80
2018,09,29,05,00,13.80
2018,09,29,05,01,13.80
2018,09,29,05,02,13.80
2018,09,29,05,03,13.80
2018,09,29,05,04,13.80
2018,09,29,05,05,13.80
2018,09,29,05,06,13.80
2018,09,29,05,07,13.80
2018,09,29,05,08,13.80
2018,09,29,05,09,13.80
2018,09,29,05,10,13.80
2018,09,29,05,11,13.80
2018,09,29,05,12,13.80
2018,09,29,05,13,13.80
2018,09,29,05,14,13.80
2018,09,29,05,15,13.80
2018,09,29,05,16,13.80
2018,09,29,05,17,13.80
2018,09,29,05,18,13.80
2018,09,29,05,19,13.80
2018,09,29,05,20,13.80
2018,09,29,05,21,13.80
2018,09,29,05,22,13.80
2018,09,29,05,23,13.80
2018,09,29,05,24,13.80
2018,09,29,05,25,13.80
2018,09,29,05,26,13.80
2018,09,29,05,27,13.80
2018,09,29,05,28,13.80
2018,09,29,05,29,13.80
2018,09,29,05,30,13.80
2018,09,29,05,31,13.90
2018,09,29,05,32,13.90
2018,09,29,05,33,13.90
2018,09,29,05,34,13.90
2018,09,29,05,35,13.90
2018,09,29,05,36,13.90
2018,09,29,05,37,13.90
2018,09,29,05,38,13.90
2018,09,29,05,39,13.90
2018,09,29,05,40,13.90
2018,09,29,05,41,13.90
2018,09,29,05,42,13.90
2018,09,29,05,43,13.90
2018,09,29,05,44,13.90
2018,09,29,05,45,13.90
2018,09,29,05,46,13.80
2018,09,29,05,47,13.80
2018,09,29,05,48,13.80
2018,09,29,05,49,13.80
2018,09,29,05,50,13.80
2018,09,29,05,51,13.80
2018,09,29,05,52,13.70
2018,09,29,05,53,13.70
2018,09,29,05,54,13.70
2018,09,29,05,55,13.60
2018,09,29,05,56,13.60
2018,09,29,05,57,13.60
2018,09,29,05,58,13.60
2018,09,29,05,59,13.50
2018,09,29,06,00,13.50
2018,09,29,06,01,13.50
2018,09,29,06,02,13.50
2018,09,29,06,03,13.50
2018,09,29,06,04,13.40
2018,09,29,06,05,13.40
2018,09,29,06,06,13.40
2018,09,29,06,07,13.40
2018,09,29,06,08,13.40
2018,09,29,06,09,13.40
2018,09,29,06,10,13.40
2018,09,29,06,11,13.40
2018,09,29,06,12,13.40
2018,09,29,06,13,13.40
2018,09,29,06,14,13.40
2018,09,29,06,15,13.40
2018,09,29,06,16,13.40
2018,09,29,06,17,13.40
2018,09,29,06,18,13.30
2018,09,29,06,19,13.30
2018,09,29,06,20,13.30
2018,09,29,06,21,13.30
2018,09,29,06,22,13.30
2018,09,29,06,23,13.30
2018,09,29,06,24,13.30
2018,09,29,06,25,13.30
2018,09,29,06,26,13.40
2018,09,29,06,27,13.40
2018,09,29,06,28,13.40
2018,09,29,06,29,13.50
2018,09,29,06,30,13.60
2018,09,29,06,31,13.60
2018,09,29,06,32,13.60
2018,09,29,06,33,13.60
2018,09,29,06,34,13.70
2018,09,29,06,35,13.70
2018,09,29,06,36,13.70
2018,09,29,06,37,13.70
2018,09,29,06,38,13.70
2018,09,29,06,39,13.70
2018,09,29,06,40,13.70
2018,09,29,06,41,13.70
2018,09,29,06,42,13.70
2018,09,29,06,43,13.70
2018,09,29,06,44,13.70
2018,09,29,06,45,13.70
2018,09,29,06,46,13.70
2018,09,29,06,47,13.70
2018,09,29,06,48,13.70
2018,09,29,06,49,13.70
2018,09,29,06,50,13.80
2018,09,29,06,51,13.80
2018,09,29,06,52,13.80
2018,09,29,06,53,13.80
2018,09,29,06,54,13.80
2018,09,29,06,55,13.80
2018,09,29,06,56,13.80
2018,09,29,06,57,13.80
2018,09,29,06,58,13.80
2018,09,29,06,59,13.80
2018,09,29,07,00,13.80
2018,09,29,07,01,13.90
2018,09,29,07,02,13.90
2018,09,29,07,03,13.90
2018,09,29,07,04,14.00
2018,09,29,07,05,14.00
2018,09,29,07,06,14.00
2018,09,29,07,07,14.00
2018,09,29,07,08,14.00
2018,09,29,07,09,14.00
2018,09,29,07,10,14.00
2018,09,29,07,11,14.10
2018,09,29,07,12,14.10
2018,09,29,07,13,14.10
2018,09,29,07,14,14.20
2018,09,29,07,15,14.20
2018,09,29,07,16,14.30
2018,09,29,07,17,14.30
2018,09,29,07,18,14.40
2018,09,29,07,19,14.40
2018,09,29,07,20,14.40
2018,09,29,07,21,14.40
2018,09,29,07,22,14.40
2018,09,29,07,23,14.40
2018,09,29,07,24,14.40
2018,09,29,07,25,14.50
2018,09,29,07,26,14.50
2018,09,29,07,27,14.50
2018,09,29,07,28,14.50
2018,09,29,07,29,14.60
2018,09,29,07,30,14.60
2018,09,29,07,31,14.60
2018,09,29,07,32,14.60
2018,09,29,07,33,14.60
2018,09,29,07,34,14.60
2018,09,29,07,35,14.60
2018,09,29,07,36,14.60
2018,09,29,07,37,14.60
2018,09,29,07,38,14.60
2018,09,29,07,39,14.60
2018,09,29,07,40,14.60
2018,09,29,07,41,14.70
2018,09,29,07,42,14.70
2018,09,29,07,43,14.70
2018,09,29,07,44,14.70
2018,09,29,07,45,14.70
2018,09,29,07,46,14.70
2018,09,29,07,47,14.70
2018,09,29,07,48,14.70
2018,09,29,07,49,14.70
2018,09,29,07,50,14.70
2018,09,29,07,51,14.80
2018,09,29,07,52,14.80
2018,09,29,07,53,14.80
2018,09,29,07,54,14.80
2018,09,29,07,55,14.90
2018,09,29,07,56,14.90
2018,09,29,07,57,14.90
2018,09,29,07,58,15.00
2018,09,29,07,59,15.00
2018,09,29,08,00,15.10
2018,09,29,08,01,15.10
2018,09,29,08,02,15.20
2018,09,29,08,03,15.20
2018,09,29,08,04,15.30
2018,09,29,08,05,15.30
2018,09,29,08,06,15.40
2018,09,29,08,07,15.40
2018,09,29,08,08,15.50
2018,09,29,08,09,15.60
2018,09,29,08,10,15.70
2018,09,29,08,11,15.70
2018,09,29,08,12,15.80
2018,09,29,08,13,15.80
2018,09,29,08,14,15.80
2018,09,29,08,15,15.90
2018,09,29,08,16,15.90
2018,09,29,08,17,15.90
2018,09,29,08,18,16.00
2018,09,29,08,19,16.00
2018,09,29,08,20,16.10
2018,09,29,08,21,16.20
2018,09,29,08,22,16.30
2018,09,29,08,23,16.30
2018,09,29,08,24,16.30
2018,09,29,08,25,16.40
2018,09,29,08,26,16.40
2018,09,29,08,27,16.40
2018,09,29,08,28,16.40
2018,09,29,08,29,16.40
2018,09,29,08,30,16.40
2018,09,29,08,31,16.40
2018,09,29,08,32,16.40
2018,09,29,08,33,16.40
2018,09,29,08,34,16.40
2018,09,29,08,35,16.40
2018,09,29,08,36,16.40
2018,09,29,08,37,16.40
2018,09,29,08,38,16.50
2018,09,29,08,39,16.50
2018,09,29,08,40,16.50
2018,09,29,08,41,16.60
2018,09,29,08,42,16.60
2018,09,29,08,43,16.60
2018,09,29,08,44,16.70
2018,09,29,08,45,16.70
2018,09,29,08,46,16.70
2018,09,29,08,47,16.80
2018,09,29,08,48,16.80
2018,09,29,08,49,16.80
2018,09,29,08,50,16.90
2018,09,29,08,51,17.00
2018,09,29,08,52,17.00
2018,09,29,08,53,17.10
2018,09,29,08,54,17.10
2018,09,29,08,55,17.20
2018,09,29,08,56,17.20
2018,09,29,08,57,17.30
2018,09,29,08,58,17.30
2018,09,29,08,59,17.30
2018,09,29,09,00,17.30
2018,09,29,09,01,17.30
2018,09,29,09,02,17.30
2018,09,29,09,03,17.30
2018,09,29,09,04,17.20
2018,09,29,09,05,17.20
2018,09,29,09,06,17.20
2018,09,29,09,07,17.20
2018,09,29,09,08,17.20
2018,09,29,09,09,17.20
2018,09,29,09,10,17.20
2018,09,29,09,11,17.30
2018,09,29,09,12,17.30
2018,09,29,09,13,17.30
2018,09,29,09,14,17.30
2018,09,29,09,15,17.40
2018,09,29,09,16,17.40
2018,09,29,09,17,17.40
2018,09,29,09,18,17.40
2018,09,29,09,19,17.40
2018,09,29,09,20,17.50
2018,09,29,09,21,17.50
2018,09,29,09,22,17.50
2018,09,29,09,23,17.60
2018,09,29,09,24,17.60
2018,09,29,09,25,17.60
2018,09,29,09,26,17.70
2018,09,29,09,27,17.70
2018,09,29,09,28,17.80
2018,09,29,09,29,17.80
2018,09,29,09,30,17.80
2018,09,29,09,31,17.80
2018,09,29,09,32,17.90
2018,09,29,09,33,17.90
2018,09,29,09,34,18.00
2018,09,29,09,35,18.00
2018,09,29,09,36,18.00
2018,09,29,09,37,18.10
2018,09,29,09,38,18.20
2018,09,29,09,39,18.30
2018,09,29,09,40,18.30
2018,09,29,09,41,18.30
2018,09,29,09,42,18.30
2018,09,29,09,43,18.30
2018,09,29,09,44,18.30
2018,09,29,09,45,18.30
2018,09,29,09,46,18.30
2018,09,29,09,47,18.30
2018,09,29,09,48,18.30
2018,09,29,09,49,18.30
2018,09,29,09,50,18.30
2018,09,29,09,51,18.30
2018,09,29,09,52,18.30
2018,09,29,09,53,18.30
2018,09,29,09,54,18.30
2018,09,29,09,55,18.30
2018,09,29,09,56,18.40
2018,09,29,09,57,18.40
2018,09,29,09,58,18.40
2018,09,29,09,59,18.40
2018,09,29,10,00,18.40
2018,09,29,10,01,18.40
2018,09,29,10,02,18.50
2018,09,29,10,03,18.50
2018,09,29,10,04,18.60
2018,09,29,10,05,18.60
2018,09,29,10,06,18.60
2018,09,29,10,07,18.60
2018,09,29,10,08,18.70
2018,09,29,10,09,18.70
2018,09,29,10,10,18.70
2018,09,29,10,11,18.70
2018,09,29,10,12,18.80
2018,09,29,10,13,18.80
2018,09,29,10,14,18.80
2018,09,29,10,15,18.80
2018,09,29,10,16,18.70
2018,09,29,10,17,18.70
2018,09,29,10,18,18.70
2018,09,29,10,19,18.70
2018,09,29,10,20,18.70
2018,09,29,10,21,18.70
2018,09,29,10,22,18.70
2018,09,29,10,23,18.70
2018,09,29,10,24,18.70
2018,09,29,10,25,18.70
2018,09,29,10,26,18.70
2018,09,29,10,27,18.70
2018,09,29,10,28,18.70
2018,09,29,10,29,18.70
2018,09,29,10,30,18.70
2018,09,29,10,31,18.70
2018,09,29,10,32,18.70
2018,09,29,10,33,18.70
2018,09,29,10,34,18.70
2018,09,29,10,35,18.70
2018,09,29,10,36,18.70
2018,09,29,10,37,18.70
2018,09,29,10,38,18.70
2018,09,29,10,39,18.80
2018,09,29,10,40,18.80
2018,09,29,10,41,18.80
2018,09,29,10,42,18.80
2018,09,29,10,43,18.80
2018,09,29,10,44,18.90
2018,09,29,10,45,18.90
2018,09,29,10,46,18.90
2018,09,29,10,47,18.90
2018,09,29,10,48,18.90
2018,09,29,10,49,18.90
2018,09,29,10,50,18.90
2018,09,29,10,51,18.90
2018,09,29,10,52,18.90
2018,09,29,10,53,18.90
2018,09,29,10,54,18.90
2018,09,29,10,55,18.90
2018,09,29,10,56,18.90
2018,09,29,10,57,18.90
2018,09,29,10,58,18.90
2018,09,29,10,59,18.90
2018,09,29,11,00,18.90
2018,09,29,11,01,18.90
2018,09,29,11,02,18.90
2018,09,29,11,03,18.90
2018,09,29,11,04,18.90
2018,09,29,11,05,18.90
2018,09,29,11,06,18.90
2018,09,29,11,07,18.90
2018,09,29,11,08,18.90
2018,09,29,11,09,18.90
2018,09,29,11,10,18.90
2018,09,29,11,11,18.90
2018,09,29,11,12,18.90
2018,09,29,11,13,18.90
2018,09,29,11,14,18.90
2018,09,29,11,15,18.90
2018,09,29,11,16,18.90
2018,09,29,11,17,19.00
2018,09,29,11,18,19.00
2018,09,29,11,19,19.10
2018,09,29,11,20,19.10
2018,09,29,11,21,19.10
2018,09,29,11,22,19.10
2018,09,29,11,23,19.10
2018,09,29,11,24,19.10
2018,09,29,11,25,19.10
2018,09,29,11,26,19.10
2018,09,29,11,27,19.10
2018,09,29,11,28,19.10
2018,09,29,11,29,19.10
2018,09,29,11,30,19.10
2018,09,29,11,31,19.10
2018,09,29,11,32,19.10
2018,09,29,11,33,19.00
2018,09,29,11,34,19.00
2018,09,29,11,35,19.00
2018,09,29,11,36,19.00
2018,09,29,11,37,19.10
2018,09,29,11,38,19.10
2018,09,29,11,39,19.10
2018,09,29,11,40,19.10
2018,09,29,11,41,19.10
2018,09,29,11,42,19.10
2018,09,29,11,43,19.10
2018,09,29,11,44,19.10
2018,09,29,11,45,19.10
2018,09,29,11,46,19.10
2018,09,29,11,47,19.10
2018,09,29,11,48,19.10
2018,09,29,11,49,19.10
2018,09,29,11,50,19.10
2018,09,29,11,51,19.10
2018,09,29,11,52,19.10
2018,09,29,11,53,19.10
2018,09,29,11,54,19.10
2018,09,29,11,55,19.10
2018,09,29,11,56,19.10
2018,09,29,11,57,19.10
2018,09,29,11,58,19.10
2018,09,29,11,59,19.10
2018,09,29,12,00,19.10
2018,09,29,12,01,19.10
2018,09,29,12,02,19.10
2018,09,29,12,03,19.10
2018,09,29,12,04,19.10
2018,09,29,12,05,19.10
2018,09,29,12,06,19.10
2018,09,29,12,07,19.10
2018,09,29,12,08,19.10
2018,09,29,12,09,19.10
2018,09,29,12,10,19.10
2018,09,29,12,11,19.10
2018,09,29,12,12,19.10
2018,09,29,12,13,19.10
2018,09,29,12,14,19.20
2018,09,29,12,15,19.30
2018,09,29,12,16,19.30
2018,09,29,12,17,19.40
2018,09,29,12,18,19.40
2018,09,29,12,19,19.40
2018,09,29,12,20,19.40
2018,09,29,12,21,19.40
2018,09,29,12,22,19.30
2018,09,29,12,23,19.30
2018,09,29,12,24,19.30
2018,09,29,12,25,19.30
2018,09,29,12,26,19.30
2018,09,29,12,27,19.30
2018,09,29,12,28,19.20
2018,09,29,12,29,19.20
2018,09,29,12,30,19.10
2018,09,29,12,31,19.10
2018,09,29,12,32,19.10
2018,09,29,12,33,19.10
2018,09,29,12,34,19.00
2018,09,29,12,35,19.00
2018,09,29,12,36,19.00
2018,09,29,12,37,18.90
2018,09,29,12,38,18.90
2018,09,29,12,39,18.90
2018,09,29,12,40,18.80
2018,09,29,12,41,18.80
2018,09,29,12,42,18.90
2018,09,29,12,43,18.90
2018,09,29,12,44,18.90
2018,09,29,12,45,18.90
2018,09,29,12,46,18.80
2018,09,29,12,47,18.80
2018,09,29,12,48,18.90
2018,09,29,12,49,18.90
2018,09,29,12,50,18.90
2018,09,29,12,51,18.90
2018,09,29,12,52,18.90
2018,09,29,12,53,18.90
2018,09,29,12,54,18.80
2018,09,29,12,55,18.90
2018,09,29,12,56,18.90
2018,09,29,12,57,18.90
2018,09,29,12,58,18.90
2018,09,29,12,59,18.90
2018,09,29,13,00,18.90
2018,09,29,13,01,18.90
2018,09,29,13,02,18.90
2018,09,29,13,03,18.90
2018,09,29,13,04,18.90
2018,09,29,13,05,18.80
2018,09,29,13,06,18.80
2018,09,29,13,07,18.80
2018,09,29,13,08,18.80
2018,09,29,13,09,18.80
2018,09,29,13,10,18.80
2018,09,29,13,11,18.90
2018,09,29,13,12,18.90
2018,09,29,13,13,18.80
2018,09,29,13,14,18.80
2018,09,29,13,15,18.80
2018,09,29,13,16,18.70
2018,09,29,13,17,18.70
2018,09,29,13,18,18.70
2018,09,29,13,19,18.60
2018,09,29,13,20,18.60
2018,09,29,13,21,18.60
2018,09,29,13,22,18.60
2018,09,29,13,23,18.60
2018,09,29,13,24,18.60
2018,09,29,13,25,18.60
2018,09,29,13,26,18.60
2018,09,29,13,27,18.50
2018,09,29,13,28,18.50
2018,09,29,13,29,18.50
2018,09,29,13,30,18.50
2018,09,29,13,31,18.60
2018,09,29,13,32,18.60
2018,09,29,13,33,18.60
2018,09,29,13,34,18.60
2018,09,29,13,35,18.60
2018,09,29,13,36,18.60
2018,09,29,13,37,18.60
2018,09,29,13,38,18.50
2018,09,29,13,39,18.50
2018,09,29,13,40,18.50
2018,09,29,13,41,18.50
2018,09,29,13,42,18.40
2018,09,29,13,43,18.40
2018,09,29,13,44,18.50
2018,09,29,13,45,18.50
2018,09,29,13,46,18.50
2018,09,29,13,47,18.50
2018,09,29,13,48,18.50
2018,09,29,13,49,18.50
2018,09,29,13,50,18.40
2018,09,29,13,51,18.40
2018,09,29,13,52,18.40
2018,09,29,13,53,18.40
2018,09,29,13,54,18.50
2018,09,29,13,55,18.50
2018,09,29,13,56,18.50
2018,09,29,13,57,18.50
2018,09,29,13,58,18.40
2018,09,29,13,59,18.40
2018,09,29,14,00,18.40
2018,09,29,14,01,18.40
2018,09,29,14,02,18.50
2018,09,29,14,03,18.50
2018,09,29,14,04,18.40
2018,09,29,14,05,18.50
2018,09,29,14,06,18.50
2018,09,29,14,07,18.60
2018,09,29,14,08,18.60
2018,09,29,14,09,18.60
2018,09,29,14,10,18.70
2018,09,29,14,11,18.70
2018,09,29,14,12,18.70
2018,09,29,14,13,18.70
2018,09,29,14,14,18.70
2018,09,29,14,15,18.70
2018,09,29,14,16,18.60
2018,09,29,14,17,18.60
2018,09,29,14,18,18.60
2018,09,29,14,19,18.60
2018,09,29,14,20,18.60
2018,09,29,14,21,18.60
2018,09,29,14,22,18.60
2018,09,29,14,23,18.60
2018,09,29,14,24,18.60
2018,09,29,14,25,18.60
2018,09,29,14,26,18.60
2018,09,29,14,27,18.60
2018,09,29,14,28,18.60
2018,09,29,14,29,18.60
2018,09,29,14,30,18.70
2018,09,29,14,31,18.70
2018,09,29,14,32,18.70
2018,09,29,14,33,18.70
2018,09,29,14,34,18.70
2018,09,29,14,35,18.70
2018,09,29,14,36,18.70
2018,09,29,14,37,18.70
2018,09,29,14,38,18.70
2018,09,29,14,39,18.70
2018,09,29,14,40,18.70
2018,09,29,14,41,18.70
2018,09,29,14,42,18.70
2018,09,29,14,43,18.70
2018,09,29,14,44,18.70
2018,09,29,14,45,18.70
2018,09,29,14,46,18.60
2018,09,29,14,47,18.60
2018,09,29,14,48,18.60
2018,09,29,14,49,18.60
2018,09,29,14,50,18.60
2018,09,29,14,51,18.60
2018,09,29,14,52,18.60
2018,09,29,14,53,18.60
2018,09,29,14,54,18.60
2018,09,29,14,55,18.60
2018,09,29,14,56,18.60
2018,09,29,14,57,18.50
2018,09,29,14,58,18.50
2018,09,29,14,59,18.40
2018,09,29,15,00,18.40
2018,09,29,15,01,18.40
2018,09,29,15,02,18.40
2018,09,29,15,03,18.50
2018,09,29,15,04,18.50
2018,09,29,15,05,18.50
2018,09,29,15,06,18.50
2018,09,29,15,07,18.50
2018,09,29,15,08,18.50
2018,09,29,15,09,18.50
2018,09,29,15,10,18.50
2018,09,29,15,11,18.50
2018,09,29,15,12,18.50
2018,09,29,15,13,18.50
2018,09,29,15,14,18.40
2018,09,29,15,15,18.40
2018,09,29,15,16,18.40
2018,09,29,15,17,18.40
2018,09,29,15,18,18.40
2018,09,29,15,19,18.40
2018,09,29,15,20,18.40
2018,09,29,15,21,18.50
2018,09,29,15,22,18.40
2018,09,29,15,23,18.40
2018,09,29,15,24,18.40
2018,09,29,15,25,18.40
2018,09,29,15,26,18.40
2018,09,29,15,27,18.50
2018,09,29,15,28,18.50
2018,09,29,15,29,18.40
2018,09,29,15,30,18.40
2018,09,29,15,31,18.40
2018,09,29,15,32,18.40
2018,09,29,15,33,18.40
2018,09,29,15,34,18.40
2018,09,29,15,35,18.40
2018,09,29,15,36,18.40
2018,09,29,15,37,18.40
2018,09,29,15,38,18.30
2018,09,29,15,39,18.30
2018,09,29,15,40,18.30
2018,09,29,15,41,18.30
2018,09,29,15,42,18.30
2018,09,29,15,43,18.30
2018,09,29,15,44,18.30
2018,09,29,15,45,18.40
2018,09,29,15,46,18.40
2018,09,29,15,47,18.40
2018,09,29,15,48,18.40
2018,09,29,15,49,18.40
2018,09,29,15,50,18.40
2018,09,29,15,51,18.40
2018,09,29,15,52,18.40
2018,09,29,15,53,18.40
2018,09,29,15,54,18.40
2018,09,29,15,55,18.40
2018,09,29,15,56,18.40
2018,09,29,15,57,18.40
2018,09,29,15,58,18.40
2018,09,29,15,59,18.30
2018,09,29,16,00,18.30
2018,09,29,16,01,18.30
2018,09,29,16,02,18.30
2018,09,29,16,03,18.30
2018,09,29,16,04,18.30
2018,09,29,16,05,18.30
2018,09,29,16,06,18.30
2018,09,29,16,07,18.30
2018,09,29,16,08,18.30
2018,09,29,16,09,18.30
2018,09,29,16,10,18.20
2018,09,29,16,11,18.20
2018,09,29,16,12,18.20
2018,09,29,16,13,18.20
2018,09,29,16,14,18.20
2018,09,29,16,15,18.20
2018,09,29,16,16,18.20
2018,09,29,16,17,18.20
2018,09,29,16,18,18.20
2018,09,29,16,19,18.20
2018,09,29,16,20,18.20
2018,09,29,16,21,18.20
2018,09,29,16,22,18.20
2018,09,29,16,23,18.20
2018,09,29,16,24,18.20
2018,09,29,16,25,18.20
2018,09,29,16,26,18.20
2018,09,29,16,27,18.20
2018,09,29,16,28,18.20
2018,09,29,16,29,18.20
2018,09,29,16,30,18.20
2018,09,29,16,31,18.10
2018,09,29,16,32,18.20
2018,09,29,16,33,18.20
2018,09,29,16,34,18.20
2018,09,29,16,35,18.10
2018,09,29,16,36,18.10
2018,09,29,16,37,18.10
2018,09,29,16,38,18.10
2018,09,29,16,39,18.10
2018,09,29,16,40,18.10
2018,09,29,16,41,18.10
2018,09,29,16,42,18.10
2018,09,29,16,43,18.10
2018,09,29,16,44,18.10
2018,09,29,16,45,18.10
2018,09,29,16,46,18.10
2018,09,29,16,47,18.10
2018,09,29,16,48,18.10
2018,09,29,16,49,18.10
2018,09,29,16,50,18.10
2018,09,29,16,51,18.10
2018,09,29,16,52,18.10
2018,09,29,16,53,18.10
2018,09,29,16,54,18.10
2018,09,29,16,55,18.10
2018,09,29,16,56,18.10
2018,09,29,16,57,18.10
2018,09,29,16,58,18.10
2018,09,29,16,59,18.10
2018,09,29,17,00,18.10
2018,09,29,17,01,18.10
2018,09,29,17,02,18.10
2018,09,29,17,03,18.10
2018,09,29,17,04,18.10
2018,09,29,17,05,18.10
2018,09,29,17,06,18.10
2018,09,29,17,07,18.10
2018,09,29,17,08,18.10
2018,09,29,17,09,18.10
2018,09,29,17,10,18.10
2018,09,29,17,11,18.10
2018,09,29,17,12,18.10
2018,09,29,17,13,18.10
2018,09,29,17,14,18.10
2018,09,29,17,15,18.10
2018,09,29,17,16,18.10
2018,09,29,17,17,18.00
2018,09,29,17,18,18.00
2018,09,29,17,19,18.00